Вернуться в каталог

STARLINK-5528

АктивенСвязьVLEO
NORAD 56890·PAYLOAD·🇺🇸 United States

Запущен Jun 12, 2023 с Cape Canaveral Space Force Station

Loading…

Ближайшие Пролёты (ближайшие 24 часа)

TLE

СвежийSource: CelesTrak SupGP

Эпоха: Sep 15, 2026, 02:28 UTC

1 56890C 23083Q   26258.10326389  .00020949  00000+0  75873-3 0  2583
2 56890  43.0009  98.8375 0001152 262.4220 306.7707 15.27570622    11

Отслеживайте STARLINK-5528 в реальном времени с AllMySat

Download on the App Store